Location: Unspecified
(41.5000°N, 0.0000°E)
Time: 21:55:44
(UTC+00:00)

Courier 1B Rocket - Pass Details

Date: 28 June 2019
Orbit: 920 x 1202 km, 28.2° (Epoch: 14 July)

Event Time Altitude Azimuth Distance (km) Brightness Sun altitude
Rises 01:24:34 0° 223° (SW) 4,050 - -22.5°
Reaches altitude 10° 01:28:16 10° 208° (SSW) 3,055 - -22.3°
Maximum altitude 01:33:30 20° 164° (SSE) 2,313 - -21.9°
Exits shadow 01:34:48 19° 150° (SSE) 2,348 6.6 -21.8°
Drops below altitude 10° 01:38:32 10° 119° (ESE) 2,926 7.4 -21.5°
Sets 01:41:58 0° 104° (ESE) 3,830 8.2 -21.3°
